This demonstration page uses our WeatherBlox Daily Observations layout. Learn more.

39.08367, -84.50855

Hourly Observations for June 11, 2019

Temp ( °F °C ) Dew Point ( °F °C ) Humidity (%) Winds ( mph kmh ) Pressure ( in mb ) Visibility ( mi km ) Precip ( " mm )
12:53 am 00:53 Clear 54 12.2 51 10.6 90 90 Calm 30.18 1022 10 16.09344 0 0
1:53 am 01:53 Clear 53 11.7 51 10.6 93 93 Calm 30.18 1022 10 16.09344 0 0
2:53 am 02:53 Clear 53 11.7 51 10.6 93 93 VRB 3 6 30.18 1022 10 16.09344 0 0
3:53 am 03:53 Clear 50 10 49 9.4 96 96 undefined N/A 30.18 1022 10 16.09344 0 0
4:53 am 04:53 Clear 50 10 49 9.4 96 96 VRB 3 6 30.18 1022 8 12.874752 0 0
5:12 am 05:12 Clear with Mist and Fog 48 8.9 48 8.9 100 100 Calm 30.21 1023 1.75 2.816352 0 0
5:15 am 05:15 Mostly Cloudy with Mist and Fog 48 8.9 48 8.9 100 100 Calm 30.21 1023 0.75 1.207008 0 0
5:31 am 05:31 Mostly Clear with Mist and Fog 49 9.4 48 8.9 97 97 VRB 3 6 30.21 1023 1.25 2.01168 0 0
5:38 am 05:38 Mostly Clear with Mist and Fog 49 9.4 48 8.9 97 97 VRB 3 6 30.21 1023 3 4.828032 0 0
5:53 am 05:53 Clear 50 10 49 9.4 96 96 VRB 6 9 30.21 1023 10 16.09344 0 0
6:10 am 06:10 Clear with Mist and Fog 49 9.4 48 8.9 97 97 VRB 6 9 30.21 1023 2.5 4.02336 0 0
6:19 am 06:19 Sunny 49 9.4 48 8.9 97 97 VRB 6 9 30.24 1024 10 16.09344 0 0
6:53 am 06:53 Sunny 49 9.4 48 8.9 97 97 VRB 5 7 30.21 1023 10 16.09344 0 0
7:53 am 07:53 Sunny 55 12.8 53 11.7 93 93 Calm 30.24 1024 10 16.09344 0 0
8:53 am 08:53 Sunny 61 16.1 54 12.2 78 78 Calm 30.24 1024 10 16.09344 0 0
9:53 am 09:53 Sunny 66 18.9 51 10.6 59 59 Calm 30.24 1024 10 16.09344 0 0
10:53 am 10:53 Sunny 71 21.7 46 7.8 41 41 N 7 11 30.24 1024 10 16.09344 0 0
11:53 am 11:53 Sunny 71 21.7 44 6.7 38 38 undefined N/A 30.24 1024 10 16.09344 0 0
12:53 pm 12:53 Sunny 74 23.3 41 5 31 31 NNE 9 15 30.21 1023 10 16.09344 0 0
1:53 pm 13:53 Sunny 75 23.9 44 6.7 33 33 VRB 5 7 30.18 1022 10 16.09344 0 0
2:53 pm 14:53 Sunny 76 24.4 45 7.2 33 33 ENE 13 20 30.15 1021 10 16.09344 0 0
3:53 pm 15:53 Sunny 78 25.6 45 7.2 31 31 N 7 11 30.15 1021 10 16.09344 0 0
4:53 pm 16:53 Sunny 76 24.4 44 6.7 32 32 E 8 13 30.12 1020 10 16.09344 0 0
5:53 pm 17:53 Sunny 78 25.6 46 7.8 32 32 SSE 7 11 30.12 1020 10 16.09344 0 0
6:53 pm 18:53 Sunny 75 23.9 49 9.4 40 40 SSW 9 15 30.09 1019 10 16.09344 0 0
7:53 pm 19:53 Sunny 71 21.7 53 11.7 53 53 S 7 11 30.09 1019 10 16.09344 0 0
8:53 pm 20:53 Sunny 66 18.9 53 11.7 63 63 SSE 6 9 30.09 1019 10 16.09344 0 0
9:53 pm 21:53 Clear 63 17.2 54 12.2 73 73 Calm 30.09 1019 10 16.09344 0 0
10:53 pm 22:53 Clear 60 15.6 53 11.7 78 78 Calm 30.12 1020 10 16.09344 0 0
11:53 pm 23:53 Clear 58 14.4 54 12.2 87 87 Calm 30.12 1020 10 16.09344 0 0

Powered by AerisWeather